Total_Precipitation_Accumulation
-0.00 0.00 0.00 0.00 0.00 0.00 0.00 0.01 0.00 0.00 0.00 0.01 0.00 0.00 0.00 0.00 0.00 0.01 0.01 0.00 0.01 0.01 0.01 0.01 0.01 -0.00 -0.00 -0.02 -0.04 -0.04 -0.04 -0.02 -0.02 -0.01 -0.01 -0.00 -0.00 -0.01 -0.01 -0.03 -0.04 -0.05 -0.05 -0.05 -0.08 -0.08 -0.14 -0.22 -0.21 -0.21 -0.24 -0.24 -0.20 -0.17 -0.17 -0.16 -0.17 -0.18 -0.18 -0.16 -0.13 -0.12 -0.12 -0.17 -0.14 -0.14 -0.10 -0.15 -0.14
-0.01 -0.01 -0.01 -0.00 -0.00 -0.00 0.00 0.00 0.00 0.00 0.00 0.00 0.00 0.00 0.00 0.00 0.01 0.00 0.00 0.01 0.01 0.01 0.01 0.01 0.00 -0.01 -0.01 -0.03 -0.03 -0.03 -0.03 -0.02 -0.02 -0.01 -0.01 -0.00 0.00 -0.01 -0.01 -0.02 -0.04 -0.05 -0.05 -0.05 -0.06 -0.06 -0.11 -0.19 -0.22 -0.22 -0.24 -0.25 -0.25 -0.25 -0.25 -0.17 -0.17 -0.21 -0.21 -0.20 -0.18 -0.16 -0.16 -0.19 -0.12 -0.12 -0.10 -0.12 -0.15
-0.03 -0.02 -0.02 -0.04 -0.04 -0.04 -0.02 -0.01 -0.00 -0.00 0.00 0.00 0.00 0.00 0.00 0.00 0.00 0.00 0.00 0.00 0.00 0.01 0.01 0.01 0.00 -0.02 -0.02 -0.05 -0.06 -0.06 -0.06 -0.04 -0.02 -0.02 -0.02 -0.00 -0.00 -0.01 -0.01 -0.01 -0.02 -0.06 -0.06 -0.07 -0.07 -0.07 -0.08 -0.13 -0.19 -0.19 -0.21 -0.24 -0.24 -0.25 -0.25 -0.17 -0.18 -0.20 -0.20 -0.20 -0.19 -0.20 -0.20 -0.17 -0.13 -0.13 -0.09 -0.12 -0.19
-0.08 -0.08 -0.08 -0.07 -0.06 -0.06 -0.04 -0.03 -0.01 -0.01 0.00 0.00 0.00 0.00 0.00 0.00 0.00 0.00 0.00 0.01 0.01 0.01 0.01 0.01 0.01 -0.01 -0.01 -0.05 -0.07 -0.07 -0.07 -0.06 -0.04 -0.02 -0.02 -0.01 -0.00 -0.00 -0.00 -0.01 -0.01 -0.02 -0.02 -0.08 -0.09 -0.09 -0.08 -0.09 -0.13 -0.13 -0.19 -0.21 -0.22 -0.23 -0.23 -0.22 -0.20 -0.19 -0.19 -0.16 -0.19 -0.20 -0.20 -0.18 -0.15 -0.15 -0.13 -0.11 -0.10
-0.07 -0.11 -0.11 -0.14 -0.11 -0.11 -0.08 -0.06 -0.06 -0.06 -0.01 -0.00 0.00 0.00 0.00 -0.00 0.00 0.00 0.00 0.01 0.00 0.00 0.00 0.01 0.01 -0.01 -0.01 -0.05 -0.06 -0.06 -0.07 -0.07 -0.07 -0.04 -0.04 -0.02 -0.01 -0.01 -0.01 -0.01 -0.01 -0.02 -0.02 -0.06 -0.10 -0.10 -0.11 -0.12 -0.14 -0.14 -0.15 -0.17 -0.20 -0.20 -0.20 -0.18 -0.20 -0.18 -0.18 -0.20 -0.17 -0.17 -0.17 -0.18 -0.17 -0.17 -0.16 -0.11 -0.11
-0.07 -0.08 -0.08 -0.12 -0.15 -0.15 -0.15 -0.15 -0.13 -0.13 -0.09 -0.06 -0.05 -0.02 -0.02 -0.01 -0.00 0.00 0.00 0.00 0.00 0.00 0.00 0.01 0.01 -0.03 -0.03 -0.05 -0.06 -0.06 -0.06 -0.07 -0.08 -0.07 -0.07 -0.05 -0.01 -0.03 -0.03 -0.02 -0.02 -0.02 -0.02 -0.03 -0.08 -0.08 -0.13 -0.16 -0.16 -0.16 -0.16 -0.17 -0.19 -0.17 -0.17 -0.16 -0.20 -0.19 -0.19 -0.21 -0.17 -0.17 -0.17 -0.17 -0.16 -0.16 -0.18 -0.17 -0.14
-0.09 -0.09 -0.09 -0.08 -0.09 -0.09 -0.11 -0.12 -0.13 -0.13 -0.15 -0.15 -0.13 -0.09 -0.09 -0.05 -0.02 -0.01 -0.01 -0.00 0.00 0.00 0.00 0.01 -0.01 -0.03 -0.03 -0.05 -0.06 -0.06 -0.05 -0.05 -0.06 -0.07 -0.07 -0.08 -0.06 -0.04 -0.04 -0.03 -0.04 -0.05 -0.05 -0.04 -0.09 -0.09 -0.14 -0.17 -0.19 -0.19 -0.18 -0.18 -0.22 -0.18 -0.18 -0.18 -0.21 -0.21 -0.21 -0.18 -0.17 -0.17 -0.17 -0.16 -0.14 -0.14 -0.19 -0.18 -0.13
-0.08 -0.09 -0.09 -0.08 -0.07 -0.07 -0.07 -0.07 -0.09 -0.09 -0.11 -0.14 -0.14 -0.11 -0.11 -0.07 -0.04 -0.03 -0.03 -0.02 -0.01 -0.03 -0.03 -0.03 -0.02 -0.04 -0.04 -0.05 -0.05 -0.05 -0.04 -0.04 -0.05 -0.06 -0.06 -0.08 -0.08 -0.06 -0.06 -0.04 -0.05 -0.04 -0.04 -0.05 -0.11 -0.11 -0.14 -0.17 -0.20 -0.20 -0.20 -0.21 -0.23 -0.20 -0.20 -0.19 -0.20 -0.20 -0.20 -0.16 -0.16 -0.16 -0.16 -0.15 -0.15 -0.15 -0.17 -0.16 -0.14
-0.07 -0.07 -0.07 -0.10 -0.09 -0.09 -0.07 -0.06 -0.06 -0.06 -0.09 -0.09 -0.09 -0.09 -0.09 -0.10 -0.08 -0.06 -0.06 -0.07 -0.06 -0.06 -0.06 -0.07 -0.04 -0.05 -0.05 -0.05 -0.05 -0.05 -0.04 -0.03 -0.04 -0.06 -0.06 -0.07 -0.08 -0.09 -0.09 -0.09 -0.08 -0.07 -0.07 -0.07 -0.12 -0.12 -0.12 -0.18 -0.17 -0.17 -0.17 -0.22 -0.22 -0.18 -0.18 -0.16 -0.20 -0.19 -0.19 -0.18 -0.17 -0.15 -0.15 -0.15 -0.15 -0.15 -0.16 -0.17 -0.17
-0.06 -0.06 -0.06 -0.10 -0.09 -0.09 -0.11 -0.09 -0.09 -0.09 -0.07 -0.07 -0.07 -0.07 -0.07 -0.08 -0.07 -0.09 -0.09 -0.09 -0.09 -0.10 -0.10 -0.10 -0.09 -0.09 -0.09 -0.08 -0.07 -0.07 -0.06 -0.04 -0.04 -0.05 -0.05 -0.06 -0.07 -0.09 -0.09 -0.11 -0.12 -0.12 -0.12 -0.12 -0.15 -0.15 -0.17 -0.19 -0.19 -0.19 -0.16 -0.21 -0.25 -0.17 -0.17 -0.16 -0.18 -0.17 -0.17 -0.19 -0.19 -0.17 -0.17 -0.15 -0.14 -0.14 -0.15 -0.16 -0.17
-0.06 -0.06 -0.06 -0.07 -0.08 -0.08 -0.11 -0.15 -0.14 -0.14 -0.17 -0.13 -0.09 -0.07 -0.07 -0.06 -0.06 -0.06 -0.06 -0.06 -0.09 -0.10 -0.10 -0.10 -0.12 -0.13 -0.13 -0.13 -0.11 -0.11 -0.09 -0.08 -0.07 -0.06 -0.06 -0.06 -0.06 -0.07 -0.07 -0.13 -0.14 -0.14 -0.14 -0.16 -0.16 -0.16 -0.20 -0.21 -0.19 -0.19 -0.19 -0.20 -0.24 -0.28 -0.28 -0.19 -0.23 -0.19 -0.19 -0.17 -0.18 -0.16 -0.16 -0.15 -0.15 -0.15 -0.15 -0.14 -0.14
-0.05 -0.05 -0.05 -0.06 -0.07 -0.07 -0.11 -0.15 -0.17 -0.17 -0.18 -0.17 -0.16 -0.15 -0.15 -0.11 -0.09 -0.08 -0.08 -0.08 -0.09 -0.09 -0.09 -0.09 -0.15 -0.17 -0.17 -0.19 -0.17 -0.17 -0.15 -0.14 -0.11 -0.10 -0.10 -0.09 -0.08 -0.09 -0.09 -0.11 -0.17 -0.16 -0.16 -0.17 -0.17 -0.17 -0.19 -0.22 -0.22 -0.22 -0.20 -0.21 -0.26 -0.33 -0.33 -0.28 -0.35 -0.26 -0.26 -0.20 -0.17 -0.17 -0.17 -0.15 -0.15 -0.15 -0.15 -0.12 -0.13
-0.10 -0.08 -0.08 -0.08 -0.08 -0.08 -0.11 -0.13 -0.14 -0.14 -0.17 -0.17 -0.18 -0.20 -0.20 -0.18 -0.13 -0.17 -0.17 -0.12 -0.11 -0.09 -0.09 -0.10 -0.15 -0.17 -0.17 -0.18 -0.18 -0.18 -0.17 -0.16 -0.15 -0.15 -0.15 -0.14 -0.14 -0.14 -0.14 -0.15 -0.20 -0.24 -0.24 -0.21 -0.18 -0.18 -0.20 -0.19 -0.22 -0.22 -0.23 -0.22 -0.27 -0.31 -0.31 -0.29 -0.46 -0.38 -0.38 -0.30 -0.24 -0.21 -0.21 -0.16 -0.14 -0.14 -0.13 -0.13 -0.14
-0.19 -0.19 -0.19 -0.17 -0.25 -0.25 -0.27 -0.24 -0.18 -0.18 -0.14 -0.15 -0.14 -0.17 -0.17 -0.16 -0.17 -0.30 -0.30 -0.19 -0.16 -0.12 -0.12 -0.11 -0.12 -0.18 -0.18 -0.16 -0.17 -0.17 -0.17 -0.15 -0.15 -0.21 -0.21 -0.22 -0.23 -0.25 -0.25 -0.24 -0.23 -0.30 -0.30 -0.28 -0.25 -0.25 -0.23 -0.20 -0.19 -0.19 -0.25 -0.25 -0.25 -0.25 -0.25 -0.24 -0.32 -0.44 -0.44 -0.41 -0.35 -0.27 -0.27 -0.20 -0.16 -0.16 -0.18 -0.15 -0.11
-0.28 -0.28 -0.28 -0.32 -0.36 -0.36 -0.38 -0.28 -0.20 -0.20 -0.17 -0.16 -0.15 -0.16 -0.16 -0.18 -0.17 -0.30 -0.30 -0.23 -0.17 -0.17 -0.17 -0.18 -0.20 -0.20 -0.20 -0.24 -0.22 -0.22 -0.19 -0.19 -0.20 -0.30 -0.30 -0.30 -0.32 -0.37 -0.37 -0.35 -0.38 -0.37 -0.37 -0.36 -0.32 -0.32 -0.29 -0.25 -0.22 -0.22 -0.24 -0.28 -0.26 -0.23 -0.23 -0.26 -0.29 -0.32 -0.32 -0.36 -0.35 -0.31 -0.31 -0.29 -0.23 -0.23 -0.31 -0.19 -0.14
-0.18 -0.15 -0.15 -0.17 -0.19 -0.19 -0.21 -0.24 -0.26 -0.26 -0.31 -0.26 -0.23 -0.27 -0.27 -0.25 -0.20 -0.35 -0.35 -0.32 -0.28 -0.33 -0.33 -0.36 -0.33 -0.27 -0.27 -0.34 -0.38 -0.38 -0.38 -0.37 -0.36 -0.40 -0.40 -0.37 -0.37 -0.40 -0.40 -0.48 -0.45 -0.42 -0.42 -0.44 -0.41 -0.41 -0.36 -0.30 -0.26 -0.26 -0.25 -0.27 -0.27 -0.28 -0.28 -0.28 -0.28 -0.26 -0.26 -0.24 -0.28 -0.31 -0.31 -0.33 -0.31 -0.31 -0.35 -0.32 -0.22
-0.12 -0.13 -0.13 -0.14 -0.18 -0.18 -0.20 -0.21 -0.22 -0.22 -0.32 -0.31 -0.32 -0.35 -0.35 -0.37 -0.40 -0.48 -0.48 -0.50 -0.52 -0.54 -0.54 -0.51 -0.43 -0.47 -0.47 -0.50 -0.54 -0.54 -0.59 -0.55 -0.56 -0.54 -0.54 -0.48 -0.48 -0.49 -0.49 -0.63 -0.64 -0.62 -0.62 -0.61 -0.57 -0.57 -0.49 -0.44 -0.39 -0.39 -0.34 -0.29 -0.28 -0.30 -0.30 -0.31 -0.31 -0.27 -0.27 -0.23 -0.23 -0.27 -0.27 -0.27 -0.27 -0.27 -0.25 -0.31 -0.34
-0.29 -0.27 -0.27 -0.28 -0.25 -0.25 -0.22 -0.20 -0.23 -0.23 -0.40 -0.53 -0.55 -0.53 -0.53 -0.61 -0.69 -0.97 -0.97 -1.07 -1.06 -0.98 -0.98 -0.85 -0.78 -0.73 -0.73 -0.73 -0.73 -0.73 -0.85 -0.83 -0.76 -0.75 -0.75 -0.66 -0.64 -0.55 -0.55 -0.54 -0.56 -0.60 -0.60 -0.64 -0.68 -0.68 -0.68 -0.67 -0.65 -0.65 -0.65 -0.63 -0.67 -0.57 -0.57 -0.51 -0.44 -0.37 -0.37 -0.31 -0.26 -0.23 -0.23 -0.22 -0.21 -0.21 -0.26 -0.25 -0.18
-0.37 -0.38 -0.38 -0.35 -0.32 -0.32 -0.31 -0.31 -0.33 -0.33 -0.54 -0.68 -0.73 -0.78 -0.78 -0.88 -0.96 -0.95 -0.95 -0.96 -1.10 -1.11 -1.11 -0.97 -0.83 -0.75 -0.75 -0.70 -0.71 -0.71 -0.71 -0.69 -0.64 -0.60 -0.60 -0.60 -0.55 -0.51 -0.51 -0.48 -0.51 -0.54 -0.54 -0.61 -0.67 -0.67 -0.67 -0.68 -0.67 -0.67 -0.72 -0.71 -0.71 -0.66 -0.66 -0.60 -0.55 -0.45 -0.45 -0.37 -0.31 -0.26 -0.26 -0.27 -0.23 -0.23 -0.21 -0.25 -0.25
-0.43 -0.41 -0.41 -0.39 -0.37 -0.37 -0.42 -0.48 -0.52 -0.52 -0.73 -0.74 -0.76 -0.72 -0.72 -0.71 -0.71 -0.78 -0.78 -0.81 -0.96 -1.14 -1.14 -1.08 -0.97 -0.90 -0.90 -0.75 -0.71 -0.71 -0.68 -0.62 -0.60 -0.57 -0.57 -0.54 -0.56 -0.47 -0.47 -0.45 -0.46 -0.48 -0.48 -0.52 -0.55 -0.55 -0.59 -0.63 -0.66 -0.66 -0.69 -0.71 -0.71 -0.66 -0.66 -0.58 -0.58 -0.53 -0.53 -0.46 -0.38 -0.31 -0.31 -0.32 -0.27 -0.27 -0.23 -0.24 -0.28
-0.35 -0.40 -0.40 -0.43 -0.48 -0.48 -0.59 -0.65 -0.81 -0.81 -0.96 -0.91 -0.85 -0.76 -0.76 -0.80 -0.85 -0.78 -0.78 -0.71 -0.85 -1.02 -1.02 -1.15 -1.04 -0.97 -0.97 -0.86 -0.66 -0.66 -0.57 -0.55 -0.59 -0.58 -0.58 -0.56 -0.53 -0.44 -0.44 -0.44 -0.45 -0.44 -0.44 -0.48 -0.52 -0.52 -0.57 -0.64 -0.67 -0.67 -0.69 -0.79 -0.75 -0.68 -0.68 -0.65 -0.59 -0.54 -0.54 -0.53 -0.48 -0.38 -0.38 -0.38 -0.32 -0.32 -0.28 -0.27 -0.27
-0.38 -0.44 -0.44 -0.55 -0.69 -0.69 -0.93 -1.11 -1.21 -1.21 -1.23 -1.18 -0.99 -0.90 -0.90 -1.11 -1.17 -0.91 -0.91 -0.69 -0.76 -0.90 -0.90 -1.09 -1.10 -1.01 -1.01 -0.92 -0.71 -0.71 -0.66 -0.62 -0.62 -0.77 -0.77 -0.75 -0.70 -0.59 -0.59 -0.55 -0.57 -0.59 -0.59 -0.62 -0.69 -0.69 -0.69 -0.71 -0.72 -0.72 -0.75 -0.84 -0.77 -0.73 -0.73 -0.71 -0.68 -0.58 -0.58 -0.53 -0.51 -0.46 -0.46 -0.46 -0.38 -0.38 -0.34 -0.31 -0.26
-0.39 -0.48 -0.48 -0.66 -0.87 -0.87 -1.09 -1.25 -1.26 -1.26 -1.31 -1.25 -1.01 -0.90 -0.90 -1.20 -1.45 -1.18 -1.18 -0.76 -0.78 -0.87 -0.87 -1.00 -1.15 -1.15 -1.15 -1.08 -0.82 -0.82 -0.75 -0.74 -0.82 -0.91 -0.91 -0.94 -0.96 -0.90 -0.90 -0.82 -0.78 -0.79 -0.79 -0.83 -0.90 -0.90 -1.00 -1.05 -0.90 -0.90 -0.82 -0.78 -0.75 -0.72 -0.72 -0.71 -0.69 -0.69 -0.69 -0.57 -0.54 -0.57 -0.57 -0.51 -0.45 -0.45 -0.39 -0.36 -0.33
-0.49 -0.56 -0.56 -0.67 -0.85 -0.85 -1.08 -1.14 -0.98 -0.98 -0.99 -1.01 -0.81 -0.83 -0.83 -1.26 -1.64 -1.62 -1.62 -0.98 -0.86 -0.89 -0.89 -0.99 -1.05 -1.06 -1.06 -1.09 -0.89 -0.89 -0.79 -0.84 -0.80 -0.87 -0.87 -0.94 -1.00 -1.09 -1.09 -1.13 -1.12 -1.07 -1.07 -1.02 -1.02 -1.02 -1.07 -1.01 -0.97 -0.97 -0.75 -0.72 -0.70 -0.67 -0.67 -0.66 -0.66 -0.66 -0.66 -0.67 -0.60 -0.66 -0.66 -0.58 -0.50 -0.50 -0.45 -0.41 -0.38
-0.53 -0.64 -0.64 -0.79 -0.92 -0.92 -1.06 -1.06 -0.82 -0.82 -0.80 -0.84 -0.72 -0.81 -0.81 -1.35 -1.66 -1.79 -1.79 -1.07 -0.90 -0.81 -0.81 -0.86 -0.93 -1.05 -1.05 -1.13 -1.16 -1.16 -1.16 -1.03 -0.92 -0.93 -0.93 -0.99 -1.08 -1.18 -1.18 -1.24 -1.13 -1.03 -1.03 -0.98 -0.96 -0.96 -0.92 -0.86 -0.88 -0.88 -0.73 -0.65 -0.65 -0.66 -0.66 -0.64 -0.63 -0.62 -0.62 -0.61 -0.64 -0.69 -0.69 -0.67 -0.60 -0.60 -0.48 -0.43 -0.40
-0.64 -0.75 -0.75 -1.01 -1.17 -1.17 -1.16 -1.08 -0.89 -0.89 -0.85 -0.85 -0.80 -0.95 -0.95 -1.43 -1.59 -1.61 -1.61 -1.15 -0.90 -0.78 -0.78 -0.79 -0.87 -1.00 -1.00 -1.10 -1.27 -1.27 -1.30 -1.18 -1.12 -1.01 -1.01 -0.98 -1.06 -1.12 -1.12 -1.17 -1.22 -1.11 -1.11 -1.06 -0.91 -0.91 -0.78 -0.74 -0.58 -0.58 -0.58 -0.60 -0.60 -0.64 -0.64 -0.66 -0.65 -0.68 -0.68 -0.65 -0.77 -0.74 -0.74 -0.69 -0.63 -0.63 -0.53 -0.45 -0.41
-0.68 -0.82 -0.82 -1.04 -1.09 -1.09 -1.02 -1.03 -1.04 -1.04 -1.02 -1.04 -1.05 -1.29 -1.29 -1.52 -1.45 -1.34 -1.34 -1.25 -0.96 -0.86 -0.86 -0.87 -0.93 -1.07 -1.07 -1.13 -1.13 -1.13 -1.15 -1.13 -1.09 -1.14 -1.14 -1.13 -1.17 -1.18 -1.18 -1.26 -1.35 -1.27 -1.27 -1.07 -0.90 -0.90 -0.72 -0.62 -0.57 -0.57 -0.55 -0.55 -0.58 -0.59 -0.59 -0.59 -0.62 -0.71 -0.71 -0.78 -0.84 -0.81 -0.81 -0.79 -0.67 -0.67 -0.61 -0.52 -0.43
-0.57 -0.70 -0.70 -0.76 -0.64 -0.64 -0.56 -0.56 -0.62 -0.62 -0.68 -0.70 -0.77 -1.07 -1.07 -1.40 -1.33 -1.25 -1.25 -1.31 -1.07 -0.92 -0.92 -0.91 -0.96 -0.96 -0.96 -1.00 -1.06 -1.06 -1.01 -1.01 -0.99 -1.05 -1.05 -1.16 -1.24 -1.36 -1.36 -1.41 -1.53 -1.51 -1.51 -1.14 -0.91 -0.91 -0.75 -0.72 -0.65 -0.65 -0.61 -0.59 -0.57 -0.56 -0.56 -0.57 -0.60 -0.69 -0.69 -0.81 -0.78 -0.77 -0.77 -0.74 -0.71 -0.71 -0.67 -0.62 -0.55
-0.46 -0.49 -0.49 -0.44 -0.39 -0.39 -0.39 -0.39 -0.41 -0.41 -0.39 -0.39 -0.42 -0.53 -0.53 -0.75 -0.96 -1.04 -1.04 -1.13 -1.10 -1.00 -1.00 -0.95 -0.99 -0.97 -0.97 -1.01 -1.02 -1.02 -1.00 -0.91 -0.85 -0.85 -0.85 -0.96 -1.16 -1.33 -1.33 -1.54 -1.63 -1.65 -1.65 -1.30 -1.04 -1.04 -0.85 -0.85 -0.74 -0.74 -0.69 -0.68 -0.70 -0.65 -0.65 -0.60 -0.61 -0.67 -0.67 -0.74 -0.70 -0.71 -0.71 -0.70 -0.66 -0.66 -0.68 -0.66 -0.61
-0.39 -0.31 -0.31 -0.28 -0.27 -0.27 -0.29 -0.32 -0.38 -0.38 -0.35 -0.34 -0.35 -0.37 -0.37 -0.43 -0.54 -0.64 -0.64 -0.78 -1.05 -0.96 -0.96 -1.05 -1.10 -1.12 -1.12 -1.10 -1.08 -1.08 -1.06 -0.99 -0.83 -0.72 -0.72 -0.68 -0.82 -1.04 -1.04 -1.35 -1.55 -1.65 -1.65 -1.58 -1.27 -1.27 -1.30 -1.02 -0.86 -0.86 -0.81 -0.82 -0.85 -0.84 -0.84 -0.74 -0.60 -0.64 -0.64 -0.63 -0.62 -0.63 -0.63 -0.62 -0.62 -0.62 -0.62 -0.63 -0.61
-0.25 -0.31 -0.31 -0.35 -0.21 -0.21 -0.21 -0.25 -0.34 -0.34 -0.32 -0.28 -0.29 -0.30 -0.30 -0.36 -0.40 -0.49 -0.49 -0.46 -0.57 -0.66 -0.66 -0.77 -0.88 -0.98 -0.98 -1.09 -1.16 -1.16 -1.19 -1.18 -0.92 -0.76 -0.76 -0.61 -0.61 -0.75 -0.75 -0.98 -1.24 -1.44 -1.44 -1.59 -1.62 -1.62 -1.60 -1.38 -1.06 -1.06 -0.93 -0.92 -0.95 -0.97 -0.97 -0.91 -0.80 -0.63 -0.63 -0.64 -0.61 -0.61 -0.61 -0.61 -0.59 -0.59 -0.58 -0.61 -0.62
-0.14 -0.19 -0.19 -0.25 -0.32 -0.32 -0.35 -0.34 -0.27 -0.27 -0.25 -0.23 -0.20 -0.23 -0.23 -0.21 -0.27 -0.33 -0.33 -0.35 -0.42 -0.48 -0.48 -0.57 -0.67 -0.79 -0.79 -0.86 -0.94 -0.94 -1.04 -1.14 -1.23 -0.87 -0.87 -0.68 -0.52 -0.56 -0.56 -0.69 -0.89 -1.13 -1.13 -1.35 -1.37 -1.37 -1.64 -1.74 -1.51 -1.51 -1.24 -1.05 -1.00 -0.98 -0.98 -0.96 -0.94 -0.88 -0.88 -0.88 -0.66 -0.62 -0.62 -0.63 -0.60 -0.60 -0.55 -0.57 -0.57
-0.10 -0.13 -0.13 -0.16 -0.22 -0.22 -0.28 -0.32 -0.41 -0.41 -0.43 -0.41 -0.31 -0.21 -0.21 -0.17 -0.19 -0.24 -0.24 -0.30 -0.32 -0.39 -0.39 -0.43 -0.54 -0.68 -0.68 -0.79 -0.89 -0.89 -0.93 -0.98 -1.13 -1.09 -1.09 -0.82 -0.58 -0.43 -0.43 -0.45 -0.57 -0.74 -0.74 -0.99 -0.94 -0.94 -1.35 -1.88 -1.90 -1.90 -1.72 -1.44 -1.17 -0.99 -0.99 -0.95 -0.97 -1.01 -1.01 -1.04 -0.93 -0.67 -0.67 -0.60 -0.57 -0.57 -0.55 -0.53 -0.55
-0.06 -0.08 -0.08 -0.10 -0.13 -0.13 -0.15 -0.19 -0.27 -0.27 -0.31 -0.35 -0.35 -0.29 -0.29 -0.22 -0.18 -0.21 -0.21 -0.25 -0.30 -0.33 -0.33 -0.34 -0.39 -0.46 -0.46 -0.54 -0.66 -0.66 -0.78 -0.83 -0.88 -1.01 -1.01 -1.07 -0.77 -0.52 -0.52 -0.37 -0.35 -0.48 -0.48 -0.45 -0.63 -0.63 -0.86 -1.24 -1.92 -1.92 -1.96 -1.76 -1.48 -1.22 -1.22 -1.08 -0.99 -1.06 -1.06 -1.07 -1.06 -0.97 -0.97 -0.66 -0.58 -0.58 -0.51 -0.52 -0.55
-0.03 -0.04 -0.04 -0.06 -0.08 -0.08 -0.09 -0.11 -0.14 -0.14 -0.16 -0.19 -0.21 -0.21 -0.21 -0.19 -0.16 -0.18 -0.18 -0.20 -0.23 -0.28 -0.28 -0.30 -0.32 -0.32 -0.32 -0.35 -0.40 -0.40 -0.49 -0.57 -0.64 -0.76 -0.76 -0.93 -1.02 -0.76 -0.76 -0.52 -0.37 -0.35 -0.35 -0.45 -0.53 -0.53 -0.64 -0.84 -1.18 -1.18 -1.80 -1.87 -1.65 -1.43 -1.43 -1.28 -1.14 -1.10 -1.10 -1.04 -1.05 -1.10 -1.10 -1.00 -0.85 -0.85 -0.59 -0.54 -0.62
-0.02 -0.02 -0.02 -0.02 -0.03 -0.03 -0.05 -0.06 -0.09 -0.09 -0.10 -0.12 -0.12 -0.13 -0.13 -0.14 -0.12 -0.10 -0.10 -0.11 -0.14 -0.22 -0.22 -0.26 -0.29 -0.32 -0.32 -0.33 -0.34 -0.34 -0.39 -0.45 -0.50 -0.55 -0.55 -0.63 -0.97 -1.00 -1.00 -0.78 -0.55 -0.68 -0.68 -0.60 -0.58 -0.58 -0.66 -0.78 -1.00 -1.00 -1.20 -1.57 -1.58 -1.47 -1.47 -1.35 -1.24 -1.13 -1.13 -1.09 -1.10 -1.11 -1.11 -1.15 -1.09 -1.09 -0.92 -0.87 -0.75
-0.01 -0.01 -0.01 -0.01 -0.01 -0.01 -0.02 -0.04 -0.05 -0.05 -0.07 -0.09 -0.10 -0.11 -0.11 -0.12 -0.12 -0.09 -0.09 -0.07 -0.08 -0.10 -0.10 -0.18 -0.21 -0.27 -0.27 -0.33 -0.37 -0.37 -0.41 -0.44 -0.46 -0.49 -0.49 -0.51 -0.59 -0.93 -0.93 -0.97 -0.83 -0.87 -0.87 -0.76 -0.70 -0.70 -0.66 -0.73 -0.85 -0.85 -0.98 -1.14 -1.28 -1.39 -1.39 -1.38 -1.29 -1.23 -1.23 -1.18 -1.15 -1.16 -1.16 -1.23 -1.26 -1.26 -1.12 -1.18 -1.02
-0.01 -0.01 -0.01 -0.01 -0.01 -0.01 -0.01 -0.01 -0.02 -0.02 -0.03 -0.05 -0.07 -0.09 -0.09 -0.10 -0.11 -0.11 -0.11 -0.10 -0.09 -0.09 -0.09 -0.10 -0.14 -0.19 -0.19 -0.24 -0.31 -0.31 -0.38 -0.44 -0.48 -0.50 -0.50 -0.51 -0.56 -0.63 -0.63 -0.85 -0.76 -0.84 -0.84 -0.81 -0.72 -0.72 -0.65 -0.63 -0.69 -0.69 -0.79 -0.93 -1.04 -1.15 -1.15 -1.23 -1.32 -1.28 -1.28 -1.24 -1.19 -1.19 -1.19 -1.21 -1.33 -1.33 -1.32 -1.35 -1.14
-0.01 -0.01 -0.01 -0.01 -0.01 -0.01 -0.01 -0.01 -0.01 -0.01 -0.02 -0.02 -0.03 -0.04 -0.04 -0.06 -0.08 -0.10 -0.10 -0.10 -0.11 -0.10 -0.10 -0.09 -0.12 -0.14 -0.14 -0.17 -0.22 -0.22 -0.29 -0.36 -0.45 -0.52 -0.52 -0.55 -0.55 -0.57 -0.57 -0.50 -0.53 -0.63 -0.63 -0.73 -0.72 -0.72 -0.64 -0.58 -0.58 -0.58 -0.68 -0.83 -0.93 -0.97 -0.97 -0.97 -1.20 -1.25 -1.25 -1.24 -1.22 -1.22 -1.22 -1.24 -1.32 -1.32 -1.37 -1.37 -1.32
-0.01 -0.01 -0.01 -0.01 -0.01 -0.01 -0.01 -0.01 -0.01 -0.01 -0.01 -0.01 -0.01 -0.01 -0.01 -0.02 -0.04 -0.06 -0.06 -0.07 -0.09 -0.10 -0.10 -0.10 -0.11 -0.12 -0.12 -0.15 -0.19 -0.19 -0.24 -0.29 -0.38 -0.45 -0.45 -0.49 -0.47 -0.47 -0.47 -0.47 -0.47 -0.52 -0.52 -0.61 -0.70 -0.70 -0.70 -0.64 -0.58 -0.58 -0.58 -0.72 -0.87 -0.90 -0.90 -0.97 -1.05 -1.12 -1.12 -1.24 -1.24 -1.21 -1.21 -1.26 -1.32 -1.32 -1.33 -1.39 -1.44
-0.01 -0.01 -0.01 -0.01 -0.01 -0.01 -0.01 -0.01 -0.01 -0.01 -0.01 -0.01 -0.01 -0.01 -0.01 -0.01 -0.01 -0.02 -0.02 -0.03 -0.05 -0.07 -0.07 -0.09 -0.12 -0.14 -0.14 -0.15 -0.18 -0.18 -0.20 -0.22 -0.28 -0.35 -0.35 -0.41 -0.43 -0.39 -0.39 -0.46 -0.50 -0.48 -0.48 -0.55 -0.68 -0.68 -0.71 -0.73 -0.68 -0.68 -0.64 -0.63 -0.74 -0.73 -0.73 -0.89 -1.02 -1.12 -1.12 -1.15 -1.21 -1.26 -1.26 -1.18 -1.21 -1.21 -1.25 -1.35 -1.42